[[{"header":{"parameterUnit":"m.s-1","parameterCategory":1,"la1":30.2991,"la2":30.254,"lo1":-89.0895,"lo2":-89.0444,"dy":0.0017,"dx":0.0017,"nx":28,"ny":28,"refTime":"2025-05-21T09:00:00:Z","depth":0,"parameterNumber":2,"parameterNumberName":"U-component_of_WINDS"},"data":[0,0,0,0,0,0,0,0,0,0,0,0,0,0,0,0,0,0,0,0,0,0,0,0,0,0,0,0,0,0,0,0,0,0,0,0,0,0,0,0,0,0,0,0,0,0,0,0,0,0,0,0,0,0,0,0,0,0,-2.2642,-2.2644,0,-2.2823,-2.2825,-2.2827,-2.2873,-2.2872,-2.287,-2.2869,-2.3052,-2.3058,-2.3064,0,0,0,0,0,0,0,0,0,0,0,0,0,-2.2338,-2.2344,-2.2642,-2.2644,-2.2647,-2.2822,-2.2825,-2.2827,-2.2873,-2.2871,-2.287,-2.2869,-2.305,-2.3057,-2.3065,0,0,0,0,0,0,0,0,0,0,0,0,0,-2.249,-2.2346,-2.2642,-2.2691,-2.2697,-2.2822,-2.2825,-2.2828,-2.2873,-2.2871,-2.287,-2.2868,-2.3048,-2.3057,-2.3066,-2.3154,0,0,-2.3093,-2.3096,0,0,0,0,0,0,0,0,-2.2481,-2.2501,-2.2681,-2.2688,-2.2695,-2.2823,-2.2785,-2.2937,-2.2874,-2.2806,-2.2869,-2.2867,-2.2977,-2.2992,-2.303,-2.3163,-2.3171,-2.3093,-2.3099,-2.3103,-2.3105,0,0,0,0,0,0,0,-2.247,-2.2493,-2.2713,-2.2684,-2.2692,-2.2704,-2.2724,-2.2814,-2.2899,-2.2812,-2.2816,-2.2836,-2.2981,-2.3021,-2.3034,-2.3173,-2.3093,-2.3101,-2.3107,-2.311,-2.3391,-2.3393,0,0,0,0,0,0,-2.2452,-2.2484,-2.2708,-2.2719,-2.2582,-2.2711,-2.2733,-2.2784,-2.2898,-2.2914,-2.2838,-2.2838,-2.3006,-2.3024,-2.3041,-2.3153,-2.3103,-2.3111,-2.3116,-2.3389,-2.3392,-2.3394,0,0,0,0,0,0,-2.2445,-2.2471,-2.2701,-2.2603,-2.2633,-2.2718,-2.2775,-2.2788,-2.2828,-2.2918,-2.2933,-2.2863,-2.3006,-2.3028,-2.3126,-2.316,-2.3115,-2.3123,-2.3386,-2.339,-2.3393,-2.3377,0,0,0,0,0,0,-2.2436,-2.2468,-2.2502,-2.2603,-2.2638,-2.2782,-2.2777,-2.2793,-2.2844,-2.2846,-2.2945,-2.296,-2.3006,-2.3113,-2.3135,-2.3171,-2.313,-2.3384,-2.3388,-2.3392,-2.3375,-2.3379,-2.3383,0,0,0,0,0,-2.2425,-2.249,-2.2504,-2.253,-2.2682,-2.2784,-2.2804,-2.2856,-2.2846,-2.2881,-2.294,-2.2957,-2.3153,-2.3122,-2.3148,-2.3187,-2.3382,-2.3387,-2.3391,-2.3373,-2.3379,-2.3383,0,0,0,0,0,0,-2.2389,-2.2504,-2.252,-2.262,-2.2692,-2.2792,-2.2837,-2.286,-2.2936,-2.2934,-2.2996,-2.3018,-2.3112,-2.316,-2.3123,-2.3281,-2.3268,-2.3278,-2.3245,-2.3251,-2.3255,-2.324,-2.3137,0,0,0,0,0,-2.2393,-2.2466,-2.2563,-2.2641,-2.2677,-2.2751,-2.2797,-2.2832,-2.2909,-2.2939,-2.3004,-2.3078,-2.3157,-2.3207,-2.3284,-2.3383,-2.3406,-2.3424,-2.3428,-2.343,-2.3438,-2.3496,-2.3504,-2.341,-2.341,-2.3409,0,0,-2.2401,-2.2473,-2.2515,-2.2636,-2.2696,-2.2771,-2.2776,-2.2855,-2.2911,-2.2951,-2.3047,-2.3098,-2.3185,-2.3285,-2.3332,-2.3328,-2.347,-2.3437,-2.3438,-2.3444,-2.3501,-2.351,-2.3518,-2.3413,-2.3412,-2.3412,0,0,-2.2454,-2.2516,-2.2589,-2.265,-2.2741,-2.2791,-2.2808,-2.2906,-2.2941,-2.304,-2.3072,-2.3141,-2.3274,-2.3335,-2.3384,-2.3465,-2.3484,-2.3489,-2.3509,-2.3565,-2.3572,-2.3579,-2.3608,-2.3617,-2.3496,-2.3496,-2.3496,0,-2.2452,-2.2566,-2.2623,-2.2701,-2.2754,-2.2796,-2.287,-2.2927,-2.3038,-2.3074,-2.3068,-2.3239,-2.33,-2.3415,-2.3436,-2.3474,-2.3496,-2.3476,-2.3566,-2.3574,-2.3581,-2.3609,-2.362,-2.3496,-2.3496,-2.3496,-2.3496,0,-2.256,-2.2639,-2.2687,-2.2795,-2.2854,-2.2929,-2.2998,-2.3051,-2.3082,-2.3132,-2.3233,-2.3309,-2.3403,-2.3434,-2.3463,-2.3554,-2.3549,-2.3554,-2.3542,-2.3589,-2.3617,-2.3628,-2.3496,-2.3496,-2.3496,-2.3496,0,0,-2.2591,-2.2733,-2.2749,-2.28,-2.2906,-2.2968,-2.3047,-2.3141,-2.3185,-2.3262,-2.3329,-2.3444,-2.3451,-2.3506,-2.3544,-2.3593,-2.3653,-2.3593,-2.3596,-2.3601,-2.3758,-2.3752,-2.3763,-2.3668,-2.367,-2.3672,-2.3751,0,-2.2656,-2.2798,-2.2854,-2.2969,-2.3044,-2.3087,-2.3156,-2.3229,-2.328,-2.3351,-2.3407,-2.3487,-2.349,-2.3524,-2.3574,-2.3635,-2.3685,-2.363,-2.3731,-2.3734,-2.3706,-2.3778,-2.3771,-2.3841,-2.3762,-2.3764,-2.3765,0,-2.275,-2.2829,-2.2953,-2.3052,-2.3086,-2.3146,-2.3238,-2.3305,-2.339,-2.3424,-2.3487,-2.3523,-2.3609,-2.3594,-2.3713,-2.3674,-2.372,-2.3757,-2.3761,-2.377,-2.375,-2.3788,-2.3865,-2.3875,-2.3783,-2.3781,-2.378,0,-2.2759,-2.2898,-2.299,-2.3032,-2.315,-2.3192,-2.3244,-2.3327,-2.3381,-2.3461,-2.3497,-2.3586,-2.3634,-2.3703,-2.3762,-2.3746,-2.3877,-2.3866,-2.3907,-2.3905,-2.393,-2.3927,-2.4013,-2.3962,-2.3962,-2.3961,-2.3961,0,-2.2825,-2.2899,-2.2996,-2.3052,-2.3137,-2.3201,-2.3284,-2.3338,-2.3413,-2.3481,-2.3525,-2.3588,-2.3664,-2.3738,-2.3785,-2.3877,-2.3899,-2.3929,-2.394,-2.3924,-2.392,-2.3952,-2.3948,-2.3964,-2.3964,-2.3963,-2.3963,0,-2.2848,-2.2917,-2.302,-2.3125,-2.3154,-2.3211,-2.3301,-2.3359,-2.3413,-2.3499,-2.3523,-2.3608,-2.3697,-2.3765,-2.388,-2.3912,-2.401,-2.4023,-2.3981,-2.3986,-2.4023,-2.4018,-2.4132,-2.415,-2.4087,-2.4088,-2.4088,0,-2.2885,-2.2943,-2.3055,-2.3105,-2.3156,-2.3235,-2.329,-2.3358,-2.3414,-2.3517,-2.3562,-2.3655,-2.3732,-2.3873,-2.3945,-2.4034,-2.4049,-2.4083,-2.4062,-2.4045,-2.4048,-2.4043,-2.405,-2.4084,-2.4085,-2.4085,-2.4085,0,-2.2942,-2.2974,-2.3052,-2.3144,-2.3209,-2.3284,-2.3359,-2.3398,-2.3479,-2.354,-2.3632,-2.3692,-2.3812,-2.3904,-2.4001,-2.4055,-2.4084,-2.4092,-2.4106,-2.4088,-2.4061,-2.4076,-2.3987,-2.4088,-2.4088,-2.4087,-2.4087,-2.4087,-2.2973,-2.3027,-2.3115,-2.3202,-2.3266,-2.3337,-2.3396,-2.3459,-2.3537,-2.364,-2.3676,-2.3771,-2.3858,-2.3992,-2.4047,-2.4124,-2.4124,-2.4144,-2.4149,-2.4152,-2.4151,-2.4052,-2.4142,-2.4142,-2.4142,-2.4142,-2.4142,0,-2.3031,-2.3091,-2.3171,-2.3276,-2.3345,-2.3368,-2.3454,-2.351,-2.3594,-2.3672,-2.3749,-2.3856,-2.3946,-2.4027,-2.4122,-2.4167,-2.4183,-2.419,-2.4186,-2.4198,-2.4145,-2.4123,-2.4176,-2.4176,-2.4176,-2.4175,-2.4175,-2.4175,-2.307,-2.3163,-2.3206,-2.3333,-2.3392,-2.3486,-2.3534,-2.36,-2.3663,-2.3781,-2.3857,-2.391,-2.399,-2.4091,-2.4176,-2.4198,-2.423,-2.4233,-2.4257,-2.4206,-2.4202,-2.4197,-2.4177,-2.424,-2.424,-2.4304,-2.4305,-2.4305]},{"header":{"parameterUnit":"m.s-1","parameterCategory":1,"la1":30.2991,"la2":30.254,"lo1":-89.0895,"lo2":-89.0444,"dy":0.0017,"dx":0.0017,"nx":28,"ny":28,"refTime":"2025-05-21T09:00:00:Z","depth":0,"parameterNumber":3,"parameterNumberName":"V-component_of_WINDS"},"data":[0,0,0,0,0,0,0,0,0,0,0,0,0,0,0,0,0,0,0,0,0,0,0,0,0,0,0,0,0,0,0,0,0,0,0,0,0,0,0,0,0,0,0,0,0,0,0,0,0,0,0,0,0,0,0,0,0,0,0.4353,0.4354,0,0.4395,0.4396,0.4396,0.4361,0.436,0.4358,0.4357,0.4395,0.4398,0.44,0,0,0,0,0,0,0,0,0,0,0,0,0,0.4241,0.4244,0.4353,0.4354,0.4354,0.4395,0.4396,0.4396,0.4361,0.436,0.4358,0.4356,0.4395,0.4397,0.44,0,0,0,0,0,0,0,0,0,0,0,0,0,0.4287,0.4244,0.4353,0.4342,0.4341,0.4395,0.4396,0.4396,0.4362,0.436,0.4357,0.4355,0.4394,0.4397,0.4401,0.4466,0,0,0.4412,0.4413,0,0,0,0,0,0,0,0,0.4285,0.4291,0.4343,0.4343,0.4342,0.4371,0.437,0.442,0.4362,0.4354,0.4357,0.4354,0.4389,0.4393,0.4405,0.4468,0.447,0.4412,0.4414,0.4416,0.4417,0,0,0,0,0,0,0,0.4282,0.4289,0.437,0.4344,0.4344,0.4334,0.4338,0.438,0.4383,0.4354,0.4352,0.4358,0.4388,0.4402,0.4406,0.447,0.4412,0.4415,0.4417,0.4419,0.4592,0.4594,0,0,0,0,0,0,0.428,0.4287,0.4368,0.4371,0.4308,0.4338,0.4343,0.4364,0.4382,0.4383,0.436,0.4356,0.4397,0.4402,0.4407,0.4486,0.4416,0.4419,0.4421,0.4589,0.4592,0.4595,0,0,0,0,0,0,0.4278,0.4288,0.4367,0.4328,0.4338,0.4342,0.4366,0.4366,0.4379,0.4386,0.4386,0.4373,0.4395,0.4402,0.4453,0.4487,0.4421,0.4424,0.4587,0.459,0.4594,0.4645,0,0,0,0,0,0,0.4275,0.4287,0.4312,0.4329,0.434,0.4412,0.4368,0.4368,0.4386,0.4382,0.4399,0.44,0.4394,0.4448,0.4456,0.4491,0.4427,0.4583,0.4588,0.4593,0.464,0.465,0.4658,0,0,0,0,0,0.4271,0.4323,0.4313,0.4323,0.4372,0.4414,0.442,0.4414,0.4389,0.4414,0.4419,0.4399,0.4482,0.4453,0.4462,0.4499,0.4581,0.4587,0.4592,0.4636,0.4648,0.4658,0,0,0,0,0,0,0.4307,0.4325,0.4314,0.4374,0.4394,0.4408,0.444,0.4427,0.4452,0.4447,0.4437,0.4441,0.4495,0.4502,0.4469,0.4565,0.4528,0.4535,0.4558,0.4569,0.4578,0.4575,0.443,0,0,0,0,0,0.4323,0.4357,0.437,0.4422,0.4432,0.4435,0.4453,0.4447,0.4466,0.4473,0.4481,0.45,0.453,0.455,0.4578,0.4642,0.4645,0.4671,0.468,0.4688,0.4694,0.473,0.4742,0.4613,0.4613,0.4613,0,0,0.4354,0.4368,0.439,0.443,0.4444,0.4479,0.4441,0.448,0.4506,0.4478,0.4528,0.4535,0.4554,0.4613,0.4638,0.462,0.4731,0.4695,0.4701,0.4703,0.4737,0.4749,0.476,0.4617,0.4616,0.4616,0,0,0.4429,0.4443,0.4488,0.4505,0.4528,0.453,0.4541,0.4559,0.4563,0.4613,0.4594,0.4625,0.4677,0.4693,0.4707,0.4793,0.4776,0.4802,0.4849,0.4884,0.4894,0.4903,0.4935,0.4946,0.4809,0.4809,0.4809,0,0.4464,0.4518,0.4513,0.4554,0.4573,0.4553,0.4599,0.4614,0.4644,0.4657,0.4637,0.4705,0.4716,0.4778,0.48,0.4812,0.4825,0.4799,0.4894,0.4903,0.4911,0.4941,0.4952,0.4812,0.4812,0.4812,0.4811,0,0.4561,0.4598,0.4632,0.4665,0.4688,0.4731,0.4733,0.4756,0.4749,0.4754,0.4806,0.482,0.4852,0.4866,0.4858,0.4928,0.4916,0.4895,0.4858,0.4926,0.4954,0.4965,0.4817,0.4816,0.4815,0.4814,0,0,0.4656,0.469,0.4702,0.4718,0.4744,0.4772,0.4816,0.4849,0.487,0.4892,0.4928,0.4975,0.4957,0.4974,0.4968,0.4999,0.5068,0.4974,0.4975,0.4991,0.5147,0.5163,0.5176,0.5057,0.506,0.5061,0.5146,0,0.4733,0.481,0.4809,0.4879,0.4915,0.4899,0.4936,0.4956,0.4963,0.4993,0.4999,0.5033,0.5006,0.5016,0.5046,0.5053,0.5099,0.5047,0.509,0.5092,0.5085,0.519,0.5206,0.5285,0.5156,0.5158,0.5159,0,0.4831,0.4861,0.4936,0.496,0.4975,0.5009,0.5041,0.5071,0.5094,0.5096,0.5117,0.5108,0.5152,0.5115,0.5176,0.5141,0.5159,0.5165,0.5168,0.5171,0.5129,0.5196,0.5309,0.5321,0.5176,0.5175,0.5174,0,0.4895,0.4953,0.5006,0.502,0.5049,0.5074,0.5086,0.5108,0.5129,0.5157,0.5171,0.5203,0.522,0.5245,0.5245,0.5217,0.5307,0.5269,0.531,0.531,0.5328,0.5326,0.5446,0.534,0.534,0.534,0.534,0,0.498,0.5026,0.5035,0.5068,0.512,0.5119,0.5171,0.5181,0.5201,0.5235,0.5223,0.5255,0.5253,0.5286,0.5286,0.5337,0.5345,0.5348,0.5347,0.5349,0.5348,0.5359,0.5354,0.5343,0.5342,0.5342,0.5341,0,0.5058,0.5065,0.5123,0.5147,0.5155,0.5192,0.5213,0.5244,0.5251,0.5294,0.5304,0.5314,0.5352,0.5356,0.5399,0.5399,0.5461,0.5455,0.5454,0.5453,0.5493,0.549,0.5623,0.5641,0.5525,0.5526,0.5527,0,0.5111,0.5147,0.5177,0.52,0.5216,0.5253,0.5276,0.5277,0.5301,0.5332,0.536,0.5398,0.5428,0.549,0.55,0.5534,0.5528,0.5573,0.5532,0.5534,0.5529,0.5527,0.5531,0.558,0.5581,0.5582,0.5583,0,0.5205,0.5208,0.5242,0.5279,0.5308,0.5336,0.5362,0.5382,0.5387,0.5414,0.5455,0.5479,0.5525,0.5563,0.5597,0.5609,0.5597,0.5596,0.5607,0.5609,0.5607,0.5609,0.5475,0.5592,0.5591,0.5591,0.559,0.559,0.5272,0.5305,0.5332,0.5371,0.5392,0.5418,0.545,0.5462,0.5497,0.5536,0.5535,0.558,0.5604,0.5649,0.5665,0.57,0.5685,0.5701,0.5705,0.5708,0.5713,0.5603,0.5706,0.5706,0.5705,0.5705,0.5705,0,0.5366,0.5384,0.542,0.546,0.5491,0.548,0.551,0.5536,0.5577,0.5602,0.5633,0.5681,0.5719,0.5734,0.5771,0.5796,0.5791,0.5805,0.5803,0.5806,0.5724,0.5711,0.5809,0.5809,0.5809,0.5809,0.5809,0.5809,0.5418,0.5473,0.548,0.5546,0.5563,0.5609,0.5628,0.5652,0.5672,0.5727,0.5759,0.577,0.5792,0.5831,0.5865,0.5868,0.5882,0.5899,0.59,0.5822,0.5812,0.5802,0.5789,0.5902,0.5902,0.5979,0.598,0.5981]}]]